Temperature
19 19 19 19 18 18 19 20 20 21 22 22 22 22 21 20 20 19 18 19 19 19 19 18 18 18 18 18 18 19 19 19 19 19 19 19 19 19 19 19 19 19 19 19 19 19 19 19 19
19 19 19 19 18 19 20 20 20 22 23 22 22 22 21 19 19 19 18 18 19 19 19 18 18 18 18 18 18 18 18 18 18 18 18 18 18 18 18 18 18 18 18 18 18 18 19 19 19
19 19 19 18 19 19 20 20 21 23 23 23 22 21 21 20 19 19 19 18 19 19 19 18 18 18 18 18 18 18 18 18 18 18 18 18 18 18 18 18 18 18 18 18 18 18 18 18 18
19 19 19 18 19 20 20 20 21 22 23 23 22 20 20 20 20 19 19 19 19 19 19 18 18 18 18 18 18 18 18 18 18 18 17 17 17 17 17 18 18 18 18 18 18 18 18 18 18
19 19 18 18 20 20 20 21 21 22 23 22 21 20 19 20 20 19 19 19 19 19 19 19 18 18 18 18 17 17 17 17 17 17 17 17 17 17 17 17 17 17 17 18 18 18 18 18 18
20 18 18 19 20 20 20 21 21 22 22 22 21 19 19 19 19 19 19 19 19 19 19 19 18 18 18 17 17 17 17 17 17 17 16 16 16 16 17 17 17 17 17 17 17 17 18 18 18
19 17 19 19 19 19 20 21 21 22 22 22 21 19 19 19 19 19 19 19 19 19 19 19 18 18 17 17 17 17 16 16 16 16 16 16 16 16 16 16 16 16 16 17 17 17 17 17 18
20 17 19 19 19 19 20 20 21 22 22 23 22 20 19 19 19 19 19 19 19 19 19 19 18 18 17 17 17 16 16 16 16 15 15 15 15 15 16 16 16 16 16 16 16 17 17 17 17
19 17 18 19 19 19 19 20 22 22 23 23 22 22 21 20 20 20 19 19 19 19 19 18 18 18 17 17 16 16 16 16 15 15 15 15 15 15 15 15 15 16 16 16 16 16 16 17 17
19 17 19 19 19 19 19 20 21 22 22 21 22 22 21 20 20 20 20 19 19 19 19 18 18 18 17 17 16 16 16 16 15 15 15 15 15 15 15 15 15 15 15 15 16 16 16 16 17
18 18 19 19 19 20 20 21 22 21 21 21 21 21 21 20 20 20 20 20 19 19 19 18 18 18 17 17 16 16 16 15 15 15 15 15 15 15 15 15 15 15 15 15 15 16 16 16 16
18 19 19 19 20 20 21 21 21 22 22 23 23 22 21 21 20 20 20 20 20 19 19 19 18 18 17 17 16 16 16 15 15 15 15 15 15 15 15 15 15 15 15 15 15 15 16 16 16
18 19 20 20 20 20 21 21 22 22 23 23 22 22 22 21 21 21 21 20 20 20 19 19 18 18 17 17 16 16 16 15 15 15 15 15 15 15 15 15 15 15 15 15 15 15 15 16 16
18 19 19 20 20 21 21 21 22 22 23 22 22 22 22 22 21 21 21 20 20 20 19 19 18 18 17 17 16 16 15 15 15 15 15 15 15 15 14 14 15 15 15 15 15 15 15 15 15
19 19 19 20 20 21 21 21 21 23 23 22 22 22 22 22 22 22 21 21 21 20 19 19 18 18 17 17 16 16 15 15 15 15 14 14 14 14 14 14 14 14 14 15 15 15 15 15 15
18 18 18 20 20 21 21 20 21 23 22 22 22 22 22 22 22 22 22 21 21 20 19 19 18 18 17 16 16 15 15 15 15 14 14 14 14 14 14 14 14 14 14 14 15 15 15 15 15
18 18 18 19 20 20 20 20 21 23 22 22 22 22 22 22 22 22 22 21 21 20 19 19 18 18 17 16 16 15 15 15 14 14 14 14 14 14 14 14 14 14 14 14 14 14 15 15 15
18 18 19 19 20 20 20 20 21 22 22 22 22 22 22 22 22 22 22 21 21 20 19 19 18 17 17 16 16 15 15 14 14 14 14 14 14 13 14 14 14 14 14 14 14 14 14 15 15
18 19 19 19 20 20 20 20 21 22 22 21 22 22 22 22 22 22 22 21 21 20 19 19 18 18 17 16 16 15 15 14 14 14 14 13 13 13 13 13 13 14 14 14 14 14 14 14 14
19 19 19 19 20 21 20 20 21 21 21 22 22 22 22 22 22 22 21 21 21 20 20 19 18 18 17 16 16 15 14 14 14 14 13 13 13 13 13 13 13 13 13 14 14 14 14 14 14
19 19 19 20 21 21 21 20 21 22 22 23 23 23 23 22 22 22 21 21 21 20 20 19 18 18 17 16 16 15 14 14 14 14 13 13 13 13 13 13 13 13 13 13 13 14 14 14 14
19 20 21 21 20 19 20 19 20 21 21 22 22 23 23 22 22 22 21 21 21 20 20 19 18 18 17 16 16 15 14 14 14 14 13 13 13 13 13 13 13 13 13 13 13 13 14 14 14
20 22 21 21 20 19 19 19 19 20 22 22 22 23 23 23 23 22 22 22 21 20 20 19 18 18 17 16 16 15 15 14 14 14 14 13 13 13 13 13 13 13 13 13 13 13 13 14 14
22 21 20 18 18 19 20 19 20 19 22 23 22 23 23 23 23 22 22 21 21 20 19 19 18 18 17 16 16 15 15 14 14 14 14 14 13 13 13 13 13 13 13 13 13 13 13 13 14
21 18 18 18 17 18 19 20 19 21 22 23 23 23 24 23 23 22 22 21 21 20 19 19 18 18 17 16 16 15 15 14 14 14 14 14 14 13 13 13 13 13 13 13 13 13 13 13 13
21 19 18 19 18 18 19 20 20 22 23 24 24 24 24 24 23 23 22 22 21 20 20 19 18 18 17 16 16 15 15 14 14 14 14 14 14 14 13 13 13 13 13 13 13 13 13 13 13
22 20 19 17 18 18 19 20 21 23 23 23 23 23 23 24 23 23 22 22 21 21 20 19 19 18 17 16 16 15 15 15 14 14 14 14 14 14 14 13 13 13 13 13 13 13 13 13 13
22 21 17 18 18 18 19 20 20 22 23 23 22 23 23 23 23 23 22 22 21 21 20 19 19 18 17 17 16 15 15 15 15 14 14 14 14 14 14 14 13 13 13 13 13 13 13 13 13
23 22 18 16 17 17 18 19 20 21 22 22 22 23 24 24 23 23 23 22 21 21 20 19 19 18 17 17 16 16 15 15 15 15 14 14 14 14 14 14 14 13 13 13 13 13 13 13 13
22 22 19 18 18 17 17 18 20 21 21 22 22 23 23 23 23 23 23 22 21 21 20 19 19 18 17 17 16 16 15 15 15 15 15 14 14 14 14 14 14 14 14 13 13 13 13 13 13
Wind_Speed
8 5 3 2 2 1 2 3 3 2 1 2 5 8 8 5 4 5 2 10 12 10 10 11 11 10 9 8 7 6 5 5 4 4 3 3 3 3 3 3 3 2 2 2 3 3 3 3 2
4 3 2 2 2 0 3 3 4 4 4 6 6 6 7 5 5 6 5 12 13 11 11 11 11 10 8 7 6 5 5 4 4 3 2 2 2 1 1 1 1 0 1 1 2 2 2 2 2
3 2 2 2 1 3 3 3 5 3 3 3 4 5 5 5 6 5 9 14 12 10 11 12 12 10 9 7 6 5 4 3 3 2 1 1 0 0 1 1 1 2 2 3 3 3 3 3 3
3 2 2 2 3 4 3 4 3 2 2 3 5 5 4 3 5 8 14 15 12 9 11 12 12 11 9 8 6 4 3 2 1 0 1 1 1 2 3 3 3 3 4 4 4 4 4 5 5
3 3 1 1 3 2 3 4 4 2 2 4 6 6 3 3 9 14 15 14 13 9 9 12 13 11 10 8 6 4 3 1 0 1 2 2 3 4 4 5 5 5 5 5 5 5 6 6 7
2 2 2 2 2 2 2 3 1 0 4 6 7 6 3 4 9 12 14 12 12 11 9 11 13 12 10 9 6 5 3 1 1 1 2 3 5 5 6 6 7 7 6 6 6 6 6 7 8
3 3 2 2 2 2 2 2 1 1 3 5 7 6 5 5 8 12 12 11 10 9 8 8 10 11 10 9 7 5 4 3 3 3 4 5 6 7 7 8 8 8 8 8 8 8 7 8 8
4 3 1 1 2 2 3 2 2 1 2 4 6 8 7 9 9 11 10 9 9 8 8 7 8 8 8 8 7 6 5 4 4 5 6 6 7 8 9 9 9 9 9 9 8 9 8 9 8
3 2 2 3 3 2 2 1 2 1 1 2 3 6 9 14 11 10 7 5 6 7 6 6 6 6 7 7 6 5 4 4 4 5 6 6 6 7 7 8 7 8 8 9 9 9 9 9 8
4 3 4 3 3 3 4 4 3 1 2 3 4 6 13 13 12 10 9 8 7 7 6 6 6 5 6 6 5 3 3 3 4 4 5 5 5 5 5 6 6 7 7 8 9 9 8 7 3
4 5 2 3 4 4 4 4 4 4 3 7 11 13 14 12 11 11 10 8 8 7 7 6 7 6 5 2 3 2 1 1 2 2 2 2 3 4 3 3 4 4 5 4 6 5 4 2 2
3 3 3 4 4 3 4 3 2 5 7 9 14 16 14 13 12 12 11 9 8 8 7 7 8 6 4 3 2 2 1 1 0 1 3 2 1 2 2 2 3 3 2 2 3 2 2 3 3
2 2 3 5 6 6 4 5 4 6 6 8 12 13 13 13 12 11 11 10 9 8 8 7 7 7 5 3 1 2 2 1 1 3 4 3 2 2 3 2 2 2 2 1 2 2 2 2 3
2 2 3 5 6 4 3 5 3 6 6 10 13 13 13 13 12 10 10 10 9 9 8 7 7 7 6 4 3 2 2 2 3 3 5 6 3 2 3 3 3 2 2 1 1 2 2 2 2
0 1 3 3 4 3 1 5 7 7 8 11 12 12 11 11 12 12 13 12 12 11 9 8 8 7 7 5 4 3 2 3 3 3 6 7 5 3 2 3 3 3 3 2 1 1 1 1 1
2 2 2 4 2 2 2 7 9 6 10 12 11 11 11 11 11 11 12 12 11 11 9 8 8 8 6 5 4 2 3 3 3 3 4 6 6 5 3 3 3 3 3 2 1 1 1 1 1
2 0 3 5 3 3 4 8 8 5 10 11 11 11 11 10 9 9 11 13 13 12 10 8 9 8 6 5 4 2 3 3 2 3 3 5 6 6 3 3 3 3 3 3 2 1 1 1 1
3 1 2 5 4 4 5 9 9 7 9 11 11 10 11 11 11 10 11 12 12 11 10 9 8 7 6 5 5 3 3 2 1 1 2 4 4 5 4 3 4 3 3 3 3 1 1 0 1
4 3 4 6 4 3 8 11 12 8 9 10 10 11 11 11 9 9 11 12 11 10 9 9 9 7 5 4 4 3 1 0 0 0 1 2 3 4 3 3 4 4 3 3 3 1 2 2 1
2 0 3 4 5 4 6 10 11 9 11 11 12 12 12 10 8 9 10 11 11 11 10 9 9 8 6 4 3 3 2 1 1 1 1 1 2 2 2 4 3 3 3 4 4 3 2 1 1
3 4 5 4 2 2 2 8 7 5 6 7 8 10 11 14 15 13 12 10 10 11 11 10 9 8 7 6 4 3 3 3 2 1 1 2 1 1 2 3 3 3 3 3 3 3 3 1 2
4 8 6 3 1 3 1 3 8 4 2 6 7 8 10 11 12 13 12 12 12 11 10 10 10 9 7 7 6 5 3 2 3 2 2 2 2 1 1 2 3 3 2 2 3 3 2 2 2
7 4 3 2 1 2 3 1 8 4 2 6 7 8 10 11 14 15 14 13 11 10 10 10 10 8 7 7 7 6 4 3 2 1 1 1 2 2 1 1 2 2 2 2 3 3 3 2 2
2 4 5 5 4 2 3 1 5 4 5 5 5 6 9 11 12 12 11 10 9 8 9 10 10 8 7 7 7 7 6 4 2 2 2 1 1 2 2 1 1 1 1 2 2 3 3 3 3
5 5 5 7 5 4 4 1 6 7 5 5 6 7 8 10 11 11 11 11 10 11 11 10 11 9 8 8 7 7 6 5 5 4 3 3 2 2 3 1 1 0 0 1 2 3 3 3 3
3 7 6 3 3 5 5 1 6 6 4 1 3 6 8 9 10 12 13 13 12 12 12 11 11 9 9 8 7 6 6 5 4 5 4 4 4 4 4 3 1 1 0 2 3 3 2 3 3
3 2 6 6 1 2 5 4 6 4 3 1 2 4 7 9 10 12 12 12 12 12 12 13 12 9 9 8 7 6 6 6 5 5 4 3 4 4 4 3 2 1 1 1 2 2 2 3 2
4 6 6 4 2 2 6 3 4 4 4 2 3 5 7 8 8 9 10 11 11 12 11 11 11 11 9 9 8 6 6 7 6 5 5 4 4 3 3 3 3 2 1 1 2 1 1 3 2
1 2 5 4 5 4 1 6 5 6 6 5 6 6 7 8 8 9 9 10 10 9 9 10 10 9 9 9 7 7 6 6 6 5 5 5 4 4 4 4 4 3 2 2 2 1 1 2 2
4 4 6 4 1 4 4 7 7 4 5 3 4 4 3 5 6 7 8 8 8 9 9 10 10 10 10 9 8 8 7 6 6 6 6 5 5 5 5 4 4 4 3 3 3 2 1 2 1
Wind_Direction
201 182 114 73 62 57 246 242 226 234 259 80 85 90 90 74 92 137 164 140 135 137 138 137 135 131 129 125 121 117 113 110 108 109 113 112 112 113 113 115 115 116 124 129 134 127 122 120 110
163 158 102 72 95 227 258 239 220 210 178 130 93 87 87 86 98 114 121 138 138 138 138 137 136 132 128 123 117 112 106 101 98 96 100 106 107 107 109 140 136 173 204 205 196 183 172 169 167
168 157 128 101 163 207 244 240 225 246 202 145 90 59 85 120 123 131 144 143 138 137 139 142 139 134 129 126 122 116 107 98 92 87 82 66 43 305 282 279 268 263 257 247 232 227 220 214 213
127 76 69 94 236 237 228 253 244 244 87 84 110 78 61 110 136 138 141 142 138 139 144 146 143 141 139 137 133 129 124 113 103 49 316 312 304 290 285 281 276 265 258 253 243 236 236 237 233
78 102 82 264 248 251 256 266 278 245 125 99 102 92 60 61 121 134 141 142 142 147 152 155 152 152 149 147 146 146 137 122 41 291 289 296 297 295 292 283 276 270 264 256 249 243 242 242 239
75 91 124 244 258 253 265 268 286 311 115 113 108 110 129 140 131 139 144 148 150 155 163 165 165 162 159 158 160 162 163 183 250 285 289 286 286 287 286 282 276 270 266 263 256 248 246 245 241
142 134 194 225 262 270 268 302 273 138 130 142 132 114 142 168 154 144 148 153 158 160 163 172 175 171 170 170 174 182 193 215 244 270 286 287 288 288 284 278 272 268 265 260 256 252 250 245 241
154 128 205 217 222 254 298 312 289 185 161 138 129 140 167 186 161 144 145 151 158 163 169 175 183 180 181 184 189 195 209 231 251 268 278 284 292 296 291 281 272 264 264 263 259 253 251 248 242
126 103 213 218 200 221 250 277 291 310 101 89 129 160 165 161 151 138 135 141 155 165 174 179 182 182 189 198 209 210 225 249 271 284 289 297 301 299 293 286 271 261 265 267 263 258 254 250 248
135 172 221 210 191 199 215 219 219 139 87 82 85 113 141 154 155 155 159 164 162 161 172 171 168 173 187 206 210 220 244 259 274 284 298 302 298 296 296 293 284 272 273 272 271 268 265 252 244
165 190 206 223 220 212 216 229 209 151 178 179 160 157 158 163 165 168 172 172 169 161 155 153 154 160 163 173 168 189 205 223 284 299 309 331 339 328 332 323 314 301 291 287 290 291 279 233 211
164 222 203 224 227 227 226 222 216 201 208 186 167 165 166 170 175 178 177 174 164 150 150 146 145 143 145 136 136 149 130 119 69 23 21 24 3 347 344 333 310 299 292 280 280 275 259 231 219
207 251 245 255 260 250 250 239 225 228 215 172 166 167 174 177 181 184 176 168 160 153 149 144 142 135 128 117 109 100 108 133 99 41 20 21 11 353 348 329 328 314 301 271 273 271 256 242 223
224 248 268 263 261 254 247 262 212 228 189 166 171 180 184 184 183 176 168 165 163 156 151 143 133 132 123 111 101 106 122 121 83 46 24 32 27 7 9 359 347 335 321 296 262 264 258 250 228
217 17 325 280 276 276 255 275 233 214 177 180 183 188 190 192 183 178 175 170 165 159 153 144 135 128 122 117 114 116 123 111 83 56 43 41 39 34 19 9 354 337 337 338 339 316 319 295 252
47 40 318 290 269 263 168 259 258 207 180 189 195 197 195 198 192 183 172 165 159 156 155 152 136 132 129 125 118 114 111 101 93 81 49 36 33 35 25 8 347 341 358 355 346 339 355 326 290
40 47 268 293 241 221 200 251 270 211 186 197 200 201 200 199 193 180 167 163 160 157 151 141 137 140 135 120 109 97 92 94 109 90 54 32 27 28 29 7 343 354 6 359 337 13 24 328 315
174 173 251 259 264 213 229 255 270 233 203 205 205 201 199 196 194 175 164 158 156 155 149 143 141 140 127 104 93 76 70 71 84 79 58 48 35 29 29 8 357 2 15 2 356 356 17 353 293
147 176 228 249 261 239 246 262 266 238 219 215 211 208 201 201 188 164 156 152 148 151 150 147 145 148 131 114 118 119 125 149 72 299 84 66 47 34 34 17 7 11 19 4 360 18 33 14 26
128 143 269 273 254 231 261 271 270 236 215 211 205 204 200 189 167 165 160 157 157 159 159 153 152 152 145 142 150 158 159 181 193 269 351 31 49 28 40 35 20 14 21 19 20 37 51 17 38
214 210 232 246 311 273 308 315 301 274 219 212 205 199 191 184 176 173 168 167 162 163 165 163 160 155 152 142 120 91 67 44 28 346 298 291 290 23 35 39 38 23 34 19 10 35 70 46 8
230 227 228 241 41 309 73 299 305 301 235 209 203 190 187 183 174 172 171 172 175 173 164 157 157 155 154 142 133 136 144 174 221 226 243 273 279 307 14 41 43 31 28 17 3 41 62 83 44
215 228 227 258 152 342 356 142 296 326 234 234 216 195 187 179 175 177 180 179 177 166 158 156 152 154 157 149 144 142 155 192 220 228 244 265 292 290 305 30 41 33 25 23 23 28 48 71 81
173 46 31 39 66 6 288 137 287 280 242 235 223 200 190 181 180 180 177 167 166 157 152 153 152 159 163 156 154 158 168 180 180 199 215 238 268 285 292 348 52 36 30 27 25 32 48 55 71
78 73 30 16 14 278 291 118 261 270 262 211 196 195 188 181 175 173 171 172 170 165 162 160 159 165 172 166 170 177 182 183 189 199 201 196 213 241 256 239 196 287 10 42 46 48 41 54 71
149 132 142 161 241 292 348 325 272 284 283 229 172 174 171 177 181 182 183 179 177 174 169 166 168 171 177 177 185 189 190 186 199 204 195 194 205 218 227 218 204 214 76 63 62 56 45 58 58
115 137 167 139 130 5 334 322 319 337 348 48 115 150 179 187 189 189 187 184 180 178 178 175 173 176 183 185 186 192 196 191 199 201 191 192 206 214 209 206 199 200 145 102 85 63 43 56 54
143 146 87 88 103 2 330 307 260 272 265 252 203 199 205 202 198 196 192 190 188 184 181 176 174 180 185 186 188 193 199 197 196 188 188 194 205 206 192 196 195 187 171 129 100 77 52 67 49
23 70 99 107 139 135 314 285 247 235 239 233 236 232 222 211 205 201 200 196 189 182 178 178 179 179 184 189 192 192 199 199 193 195 202 201 203 199 191 195 187 185 186 174 139 128 91 75 48
170 172 141 136 192 155 168 271 293 279 279 286 280 278 252 224 216 206 198 188 184 186 187 186 185 184 189 189 188 194 197 191 194 208 214 210 204 202 198 193 187 191 187 181 172 179 151 130 110
Height
1518 1518 1519 1520 1521 1525 1525 1518 1512 1509 1506 1504 1502 1502 1505 1510 1513 1520 1516 1516 1518 1519 1520 1521 1521 1522 1522 1522 1522 1522 1522 1521 1521 1521 1521 1521 1521 1522 1522 1522 1522 1522 1522 1522 1522 1522 1522 1522 1522
1517 1518 1520 1519 1523 1530 1525 1514 1510 1506 1504 1504 1504 1505 1507 1511 1511 1513 1514 1516 1518 1519 1520 1521 1521 1522 1522 1521 1521 1521 1521 1520 1520 1520 1520 1520 1520 1520 1520 1520 1520 1521 1521 1521 1521 1521 1521 1521 1521
1516 1517 1519 1519 1523 1526 1520 1511 1507 1503 1502 1502 1505 1507 1509 1511 1512 1513 1514 1516 1518 1519 1520 1521 1521 1521 1521 1521 1521 1520 1520 1519 1519 1519 1519 1519 1518 1518 1519 1519 1519 1519 1519 1519 1519 1520 1520 1520 1520
1516 1518 1518 1521 1522 1516 1512 1508 1505 1503 1503 1503 1504 1508 1510 1512 1512 1513 1515 1517 1518 1519 1520 1521 1521 1521 1521 1520 1520 1519 1518 1518 1517 1517 1517 1517 1516 1516 1516 1517 1517 1517 1517 1517 1518 1518 1518 1518 1519
1516 1516 1520 1523 1518 1512 1508 1506 1505 1503 1503 1504 1504 1509 1512 1513 1513 1514 1515 1517 1519 1520 1520 1521 1521 1521 1520 1520 1519 1518 1517 1516 1515 1515 1515 1514 1514 1514 1514 1514 1514 1515 1515 1515 1516 1516 1516 1517 1517
1515 1515 1523 1525 1517 1511 1508 1505 1505 1504 1504 1505 1505 1509 1513 1514 1514 1515 1516 1518 1519 1520 1520 1521 1521 1520 1520 1519 1518 1517 1516 1515 1514 1514 1513 1513 1512 1512 1512 1512 1512 1512 1512 1513 1513 1513 1514 1515 1515
1515 1517 1520 1519 1517 1513 1508 1505 1504 1504 1504 1505 1505 1509 1513 1514 1515 1515 1517 1518 1519 1520 1520 1520 1520 1520 1520 1519 1518 1517 1516 1515 1514 1513 1512 1512 1511 1511 1510 1510 1510 1510 1510 1510 1510 1510 1511 1512 1513
1512 1515 1517 1518 1516 1513 1508 1506 1504 1504 1504 1505 1505 1507 1510 1513 1514 1516 1517 1518 1519 1519 1520 1520 1520 1520 1519 1518 1517 1516 1516 1515 1514 1513 1512 1511 1510 1510 1509 1508 1508 1508 1508 1507 1508 1508 1509 1510 1511
1511 1517 1520 1516 1514 1511 1507 1506 1504 1504 1504 1504 1504 1504 1506 1511 1513 1515 1517 1518 1518 1519 1519 1519 1519 1519 1519 1518 1517 1516 1515 1514 1513 1512 1511 1510 1509 1508 1508 1507 1506 1506 1506 1505 1505 1506 1506 1507 1508
1510 1516 1513 1509 1508 1507 1506 1505 1504 1504 1504 1504 1504 1505 1507 1510 1512 1514 1515 1517 1518 1518 1518 1519 1519 1518 1518 1517 1517 1516 1515 1514 1513 1512 1511 1509 1508 1507 1507 1506 1505 1505 1504 1504 1504 1503 1504 1504 1505
1507 1510 1508 1506 1506 1506 1505 1504 1503 1503 1505 1503 1503 1505 1507 1509 1511 1513 1514 1516 1517 1517 1518 1518 1518 1518 1517 1517 1516 1515 1514 1513 1512 1511 1510 1509 1508 1506 1505 1504 1504 1503 1503 1502 1502 1501 1501 1502 1503
1506 1506 1506 1505 1504 1504 1504 1503 1502 1502 1501 1501 1502 1503 1505 1508 1510 1511 1513 1515 1516 1516 1517 1517 1517 1517 1517 1516 1515 1515 1514 1513 1512 1511 1509 1508 1507 1506 1504 1503 1502 1502 1501 1500 1500 1500 1500 1500 1501
1506 1505 1504 1504 1503 1503 1502 1502 1501 1499 1499 1501 1502 1503 1504 1506 1508 1510 1512 1513 1515 1516 1516 1517 1516 1516 1516 1515 1515 1514 1513 1512 1511 1510 1509 1507 1506 1505 1503 1502 1501 1500 1499 1499 1498 1498 1498 1498 1499
1505 1504 1505 1504 1503 1502 1501 1500 1500 1497 1498 1499 1501 1502 1503 1505 1506 1508 1510 1512 1513 1514 1515 1516 1515 1515 1515 1514 1514 1513 1512 1512 1511 1509 1508 1506 1505 1503 1502 1501 1499 1498 1498 1497 1496 1496 1496 1497 1497
1504 1506 1506 1503 1502 1501 1501 1501 1496 1495 1496 1497 1499 1500 1501 1503 1505 1506 1508 1509 1511 1512 1514 1514 1514 1514 1514 1513 1513 1512 1511 1511 1510 1509 1507 1506 1504 1502 1501 1499 1498 1497 1496 1495 1495 1495 1495 1495 1496
1506 1510 1513 1504 1501 1500 1504 1506 1492 1492 1494 1495 1496 1498 1499 1501 1503 1504 1506 1508 1509 1511 1512 1512 1513 1513 1513 1512 1512 1511 1511 1510 1509 1508 1507 1505 1503 1502 1500 1498 1497 1496 1495 1494 1493 1493 1493 1494 1494
1512 1517 1514 1507 1500 1500 1501 1501 1490 1490 1492 1493 1494 1495 1497 1499 1501 1503 1504 1506 1507 1509 1510 1511 1511 1512 1512 1511 1511 1511 1510 1509 1508 1507 1506 1504 1502 1501 1499 1497 1496 1494 1493 1493 1492 1492 1492 1492 1493
1518 1517 1514 1510 1500 1499 1500 1497 1489 1489 1490 1490 1491 1493 1495 1497 1498 1501 1503 1504 1506 1507 1509 1509 1510 1510 1510 1510 1510 1510 1509 1509 1508 1506 1505 1503 1502 1500 1498 1497 1495 1494 1493 1492 1491 1491 1491 1491 1491
1509 1512 1512 1505 1497 1499 1498 1495 1488 1486 1488 1488 1489 1490 1492 1494 1497 1499 1501 1503 1505 1506 1507 1508 1508 1509 1509 1509 1509 1509 1509 1508 1507 1506 1505 1503 1501 1500 1498 1496 1495 1494 1492 1491 1490 1490 1490 1490 1491
1507 1511 1509 1503 1496 1498 1498 1494 1485 1482 1483 1483 1484 1486 1488 1492 1495 1498 1500 1501 1503 1504 1506 1506 1507 1508 1508 1508 1508 1508 1508 1507 1507 1506 1504 1503 1501 1500 1498 1496 1495 1493 1492 1491 1490 1490 1490 1490 1490
1507 1509 1506 1504 1498 1496 1498 1498 1487 1480 1479 1481 1482 1483 1485 1488 1491 1494 1497 1499 1501 1502 1504 1504 1505 1506 1507 1506 1506 1507 1507 1506 1506 1505 1504 1503 1501 1500 1498 1497 1495 1494 1492 1491 1490 1490 1489 1489 1490
1508 1498 1497 1499 1506 1510 1504 1515 1494 1485 1481 1480 1481 1482 1483 1486 1489 1491 1494 1497 1499 1501 1502 1503 1504 1505 1505 1505 1505 1505 1505 1505 1505 1505 1504 1503 1502 1500 1499 1497 1496 1494 1493 1491 1490 1490 1490 1490 1490
1497 1491 1495 1497 1504 1510 1506 1513 1505 1488 1486 1481 1479 1480 1481 1483 1486 1489 1491 1494 1497 1499 1500 1501 1502 1503 1504 1504 1504 1504 1504 1504 1504 1504 1504 1503 1502 1501 1499 1498 1496 1495 1493 1492 1491 1490 1490 1490 1490
1489 1494 1499 1505 1511 1521 1510 1513 1509 1495 1486 1480 1478 1479 1480 1482 1485 1487 1490 1493 1495 1497 1498 1499 1500 1501 1502 1502 1503 1503 1503 1503 1503 1503 1503 1502 1502 1501 1499 1498 1497 1495 1494 1493 1492 1491 1491 1490 1491
1493 1509 1525 1527 1532 1526 1509 1510 1507 1487 1480 1478 1477 1477 1479 1481 1483 1486 1488 1491 1493 1494 1496 1497 1498 1499 1500 1501 1501 1502 1502 1503 1503 1503 1502 1502 1501 1500 1499 1498 1497 1496 1495 1494 1493 1492 1491 1491 1491
1496 1507 1526 1534 1534 1526 1512 1511 1499 1483 1479 1477 1476 1477 1479 1480 1482 1483 1485 1487 1489 1491 1493 1494 1496 1497 1498 1499 1500 1501 1501 1502 1502 1502 1502 1501 1501 1500 1499 1498 1497 1496 1495 1495 1494 1493 1492 1492 1492
1495 1503 1505 1519 1522 1528 1520 1506 1493 1483 1481 1479 1478 1479 1479 1480 1481 1482 1483 1485 1487 1489 1490 1492 1493 1495 1496 1497 1498 1499 1500 1500 1501 1501 1501 1501 1500 1500 1499 1499 1498 1497 1496 1495 1494 1494 1493 1493 1493
1489 1495 1509 1519 1530 1535 1526 1514 1509 1491 1485 1481 1480 1479 1479 1479 1479 1480 1482 1483 1485 1486 1488 1490 1491 1493 1494 1495 1497 1498 1498 1499 1500 1500 1500 1500 1500 1500 1499 1499 1498 1497 1496 1496 1495 1495 1494 1494 1494
1492 1496 1507 1519 1523 1534 1535 1523 1493 1489 1484 1482 1480 1479 1478 1478 1478 1478 1479 1481 1483 1484 1486 1487 1489 1490 1492 1493 1495 1496 1497 1498 1498 1499 1499 1499 1499 1499 1499 1498 1498 1497 1497 1496 1496 1495 1495 1495 1495
1489 1493 1503 1518 1521 1525 1531 1522 1487 1485 1483 1481 1480 1478 1478 1477 1477 1477 1478 1479 1480 1482 1483 1485 1486 1488 1489 1491 1493 1494 1495 1496 1497 1497 1498 1498 1498 1498 1498 1498 1498 1497 1497 1496 1496 1496 1495 1495 1495